Regional Weather Roundup
Issued by NWS

Home | Current Version | Previous Version | Text Only | Print | Product List | Glossary Off
Versions: 1 2 3 4 5 6 7 8 9 10 11 12 13 14 15 16 17 18 19 20 21 22 23 24 25 26 27 28 29 30 31 32 33 34 35 36 37 38 39 40 41 42 43 44 45 46 47 48 49 50

000
ASUS43 KDTX 040210
RWRMI
MICHIGAN HOURLY REGIONAL WEATHER ROUNDUP
NATIONAL WEATHER SERVICE DETROIT/PONTIAC MI
900 PM EST TUE MAR 03 2015

NOTE: "FAIR" INDICATES FEW OR NO CLOUDS BELOW 12,000 FEET WITH NO
SIGNIFICANT WEATHER AND/OR OBSTRUCTION TO VISIBILITY.

MIZ047>049-052>055-059>063-066>070-074>076-081>083-040300-
SOUTHEAST LOWER MICHIGAN

CITY           SKY/WX    TMP DP  RH WIND       PRES   REMARKS
ADRIAN         CLOUDY    35  31  85 NW13      29.72R
ALMA           CLOUDY    31  27  83 W16G22    29.67R
ANN ARBOR      CLOUDY    35  29  78 W21G29    29.68R
BAD AXE        CLOUDY    31  29  93 W16G24    29.61R
DETROIT CITY   CLOUDY    38  30  73 W16G28    29.67R
DETROIT        CLOUDY    37  30  75 W16       29.68R
FLINT          CLOUDY    34  27  75 W21       29.65R
GROSSE ILE     CLOUDY    37  32  81 W14G21    29.67R
HILLSDALE      CLOUDY    34  31  87 W18G32    29.70R
HOWELL         CLOUDY    32  28  85 W20       29.66R

CITY           SKY/WX    TMP DP  RH WIND       PRES   REMARKS
JACKSON        CLOUDY    34  28  79 W16G29    29.69R
LAMBERTVILLE   CLOUDY    37  32  81 W12G18    29.72R
LANSING        CLOUDY    32  27  81 W22G32    29.68R
LAPEER         NOT AVBL
MASON          CLOUDY    32  28  83 W16       29.68S
MONROE         CLOUDY    36  32  87 W16G22    29.68S
MT. CLEMENS    CLOUDY    36  31  83 W15G22    29.64R
PONTIAC        CLOUDY    33  28  81 W24       29.64R
PORT HOPE        N/A     31  26  82 W9G18     29.59R
PORT HURON     CLOUDY    34  32  93 W5        29.64R
TRI CITIES     CLOUDY    33  27  78 W17       29.64R
YPSILANTI      CLOUDY    38  30  73 W17       29.67R
$$
MIZ043>046-050>051-056>058-064>065-071>073-077>080-040300-
SOUTHWEST LOWER MICHIGAN

CITY           SKY/WX    TMP DP  RH WIND       PRES   REMARKS
BATTLE CREEK   CLOUDY    34  28  79 W15G28    29.73R
BENTON HARBOR  CLOUDY    32  30  92 W15       29.77R
BIG RAPIDS     CLOUDY    28  26  90 W13       29.66R
COLDWATER      CLOUDY    34  29  82 W17G23    29.73R
HOLLAND        CLOUDY    32  26  78 W10       29.76R
GRAND RAPIDS   CLOUDY    31  26  82 W18       29.72R
KALAMAZOO      CLOUDY    34  28  79 W12       29.74R
MARSHALL       CLOUDY    32  28  86 W13G22    29.71R
MUSKEGON       CLOUDY    31  23  72 W14       29.74R
$$
MIZ016>042-040300-
NORTHERN LOWER MICHIGAN

CITY           SKY/WX    TMP DP  RH WIND       PRES   REMARKS
ALPENA         CLOUDY    26  23  88 W6        29.54R
BEAVER ISLAND  PTCLDY    23  19  85 W9        29.58R
BELLAIRE       CLEAR     27  22  81 SW3       29.62R
CADILLAC       CLOUDY    25  22  87 W13G21    29.60R
CHARLEVOIX     CLEAR     23  19  85 W17G23    29.62R
FRANKFORT      CLEAR     28  23  81 W10G17    29.65R
GAYLORD        CLOUDY    24  21  88 W20G28    29.53R
GRAYLING       CLOUDY    28  24  86 W10G21    29.57R
HARBOR SPRINGS CLEAR     22  19  88 W12       29.57R
HOUGHTON LAKE  CLOUDY    26  21  81 W14       29.59R
MANISTEE       PTCLDY    28  19  69 W13       29.68R
OSCODA         CLOUDY    27  26  96 SW9       29.58R
PELLSTON       PTCLDY    25  20  81 W14       29.56R
TRAVERSE CITY  PTCLDY    27  21  78 W9        29.61R
$$
MIZ007>008-015-040300-
EASTERN UPPER MICHIGAN

CITY           SKY/WX    TMP DP  RH WIND       PRES   REMARKS
KINROSS        CLOUDY    21  21 100 W7        29.52R
MACKINAC ISLAN CLOUDY    25  24  96 W15G21    29.53R
NEWBERRY       LGT SNOW  21  20  98 SW6       29.53R
S. S. MARIE    CLOUDY    23  19  85 SW8       29.52R
$$
MIZ004>006-011>014-085-040300-
CENTRAL UPPER MICHIGAN

CITY           SKY/WX    TMP DP  RH WIND       PRES   REMARKS
MANISTIQUE     CLOUDY    25  21  85 W7        29.56F
ESCANABA       PTCLDY    25  18  74 W6        29.61R
MENOMINEE      PTCLDY    28  18  64 W5        29.63R
SAWYER-GWINN   FLURRIES  23  19  86 W9        29.54R
$$
MIZ001>003-009>011-084-040300-
WESTERN UPPER MICHIGAN

CITY           SKY/WX    TMP DP  RH WIND       PRES   REMARKS
IRON MOUNTAIN  MOCLDY    24  17  74 W10       29.58R
HOUGHTON       MIX PCPN  16   8  71 W28G37    29.58R WCI  -4
COPPER HARBOR    N/A     21  12  68 N18G31    29.55R
IRONWOOD       CLOUDY    19   9  63 W20G30    29.67R
$$

ABBREVIATIONS USED IN REMARKS
   TC - TEMPERATURE IN CELSIUS
  WCI - WIND CHILL INDEX
   HX - HEAT INDEX
  VSB - VISIBILITY




USA.gov is the U.S. government's official web portal to all federal, state and local government web resources and services.